ATLAS 5 CENTAUR DEB, 44015

Orbit data source: Space-Track

ATLAS 5 CENTAUR DEB, 44015 is space debris in HEO originally from a launch on Wed, 17 Sep 2014 UTC launched from the Air Force Eastern Test Range (AFETR). Debris objects in space refer to the collection of defunct objects orbiting the Earth. Examples of debris include non-operational satellites, rocket bodies, and fragments generated from explosions, collisions, or faulty payload assembly.

Loading next visibility...
Identifier
44015, 2014-055BW
Orbit
HEO
Country
Flag of USUS
Related business
Flag of USUnited Launch Alliance/Lockheed Martin (US)
Manufacturer
Unknown
Mission
Spacecraft
Bus & Motor
Unknown
Mass
Unknown
Launch date (UTC)
2014-09-17 (11 years ago)
Launch vehicle
Unknown
Launch site
Air Force Eastern Test Range (AFETR)
Object type
Payload
Rocket body
Debris
Shape & HBR
Unknown shape, 1.1 m
Radar Cross Section
RCS unknown

Expand to show TLE details & history
Last TLE update: 2 days ago

TLE from 2 days ago
0 ATLAS 5 CENTAUR DEB
1 44015U 14055BW  26060.66616714  .00000063  00000-0  00000-0 0  9999
2 44015  21.1047  98.4035 5065171 247.5292  52.4338  1.95143949 52463
Epoch: 2026-03-01T15:59Z
TLE epoch observation values (Epoch: 2026-03-01T15:59:16.840Z)
Latitude
0.00001°
Longitude
59.22325°
Altitude
18,570.517 km
Speed
4.149 km/s
True Right ascension
06h 34m 03s
True Declination
0° 00' 00"
Sunlit
Object was in daylight at epoch
Visualization orbit readout
Latitude
Unknown
Longitude
Unknown
Altitude
Unknown
Speed
Unknown
Apparent Right ascension
Unknown
Apparent Declination
Unknown
Sunlit
N/A
Visualization observer readout
Local Sidereal Time
11:38:58
Azimuth
Unknown
Elevation
Unknown
Doppler factor
Unknown
Orbital elements
Apogee altitude
34,376.056 km
Perigee altitude
6,971.527 km
Semi-major axis
27,051.929 km
Eccentricity
0.50652
Inclination
21.1047°
RAAN
98.4035°
Arg. of periapsis
247.5292°
True anomaly
112.446°
Mean anomaly
52.4338°
Eccentric anomaly
81.10615°
Mean motion
0.4878 °/min
Orbital period
738 mins
BSTAR
0
Loading maneuver chart data...
Computing Atmospheric mass density...

Documentation

Showing up to 5 results
|